Flag for Austria Weather past 2 weeks in Zwettl, Lower Austria, Austria

Now
55 °F

Cool.


Feels Like: 54 °F
Forecast: 32 / 60 °F
Wind: 6 mph from Northwest

Location: Retz

Current Time: Sep 23, 2014 at 5:22:07 PM

Latest Report: Sep 23, 2014 at 5:00 PM


Visibility: N/A

Pressure: 30.06 "Hg

Humidity: 61%

Dew point: 42 °F

Location of ZwettlLocation

Historic Weather in Zwettl — Graph

°F

Zwettl temperature yesterday

Maximum temperature yesterday: 60 °F (at 1:00 AM)
Minimum temperature yesterday: 48 °F (at 11:00 PM)
Average temperature yesterday: 55 °F

Past Weeks' High & Low Weather Summary

 TemperatureHumidityPressure
High76 °F (Sep 8, 4:00 PM)99% (Sep 14, 9:00 AM)30.08 "Hg (Sep 14, 9:00 AM)
Low47 °F (Sep 23, 4:00 AM)52% (Sep 8, 4:00 PM)29.77 "Hg (Sep 12, 6:00 AM)
Average61 °F82%29.97 "Hg
* Reported Sep 8 4:00 PM — Sep 23 4:00 PM, Zwettl, Weather by CustomWeather, © 2014

Note: Actual official high and low records may vary slightly from our data, if they occured in-between our weather recording intervals... More about our weather records

Advertising

Zwettl weather history for previous 24 hours

 ConditionsComfort  
Time TempWeatherWind HumidityBarometerVisibility
4:00 PM
Sep 23
57 °FRefreshingly cool.6 mph58%30.06 "HgN/A
3:00 PM57 °FRefreshingly cool.8 mph59%30.06 "HgN/A
2:00 PM54 °FOvercast.7 mph73%30.06 "Hg17 mi
1:00 PM52 °FFog.7 mph87%30.07 "HgN/A
12:00 PM53 °FCool.9 mph70%30.05 "HgN/A
11:00 AM53 °FCool.7 mph73%30.04 "HgN/A
10:00 AM52 °FCool.7 mph74%30.02 "HgN/A
9:00 AM51 °FCool.7 mph75%30.00 "HgN/A
8:00 AM49 °FPartly sunny.6 mph83%29.98 "Hg17 mi
7:00 AM49 °FOvercast.8 mph84%29.96 "Hg12 mi
6:00 AM48 °FCool.7 mph85%29.93 "HgN/A
5:00 AM48 °FCool.6 mph87%29.94 "HgN/A
4:00 AM47 °FCool.7 mph86%29.94 "HgN/A
3:00 AM47 °FCool.7 mph82%29.95 "HgN/A
2:00 AM47 °FCool.6 mph83%29.95 "HgN/A
1:00 AM47 °FCool.7 mph83%29.96 "HgN/A
12:00 AM48 °FCool.8 mph83%29.94 "HgN/A
11:00 PM
Sep 22
48 °FCool.6 mph82%29.94 "HgN/A
10:00 PM49 °FCool.7 mph79%29.93 "HgN/A
9:00 PM50 °FCool.6 mph76%29.93 "HgN/A
8:00 PM51 °FPassing clouds.7 mph76%29.90 "Hg11 mi
7:00 PM53 °FCool.6 mph75%29.89 "HgN/A
6:00 PM55 °FCool.7 mph64%29.86 "HgN/A
5:00 PM57 °FCool.9 mph62%29.85 "HgN/A
Weather by CustomWeather, © 2014

See weather overviewHow to use our weather pages